Weather History for Mt. Pocono, PA

Change the Weather History Date:

Sunday, October 16, 2011

  Actual Average Record
Temperature  
Mean Temperature 53 °F 48 °F  
Max Temperature 60 °F 58 °F 79 °F (1947)
Min Temperature 46 °F 39 °F 20 °F (1907)
Degree Days  
Heating Degree Days 12 17  
Month to date heating degree days 184 236  
Since 1 July heating degree days 329 504  
Cooling Degree Days 0 0  
Month to date cooling degree days 0 0  
Year to date cooling degree days 480 313  
Growing Degree Days 2 (Base 50)    
Moisture  
Dew Point 36 °F    
Average Humidity 53    
Maximum Humidity 66    
Minimum Humidity 40    
Precipitation  
Precipitation 0.03 in 0.13 in 1.73 in (2002)
Month to date precipitation 3.06 2.31  
Year to date precipitation 69.57 38.65  
Sea Level Pressure  
Sea Level Pressure 29.80 in    
Wind  
Wind Speed 14 mph (WSW)    
Max Wind Speed 28 mph    
Max Gust Speed 35 mph    
Visibility 10 miles    
Events Rain    
T = Trace of Precipitation, MM = Missing Value Source: NWS Daily Summary

Daily Weather History Graph

Daily Weather History Graph

Search for Another Location

Airport:

Trip Planner

Search our weather history database for the weather conditions in past years. The results will help you decide how hot, cold, wet, or windy it might be!

Date:

Astronomy

Oct. 16, 2011 Rise Set
Actual Time 7:13 AM EDT 6:19 PM EDT
Civil Twilight 6:46 AM EDT 6:47 PM EDT
Nautical Twilight 6:14 AM EDT 7:19 PM EDT
Astronomical Twilight 5:42 AM EDT 7:51 PM EDT
Moon 9:01 PM EDT (10/16) 11:31 AM EDT (10/16)
Length of Visible Light 12h 01m
Length of Day
11h 05m
Waning Gibbous, 82% of the Moon is Illuminated
Oct 16
Waning Gibbous
Oct 19
Last Quarter
Oct 26
New
Nov 2
First Quarter
Nov 10
Full

Hourly Weather History & Observations

Time (EDT) Temp. Dew Point Humidity Pressure Visibility Wind Dir Wind Speed Gust Speed Precip Events Conditions
12:53 AM 51.1 °F 32.0 °F 48% 29.76 in 10.0 mi West 19.6 mph 26.5 mph N/A   Overcast
1:53 AM 51.1 °F 32.0 °F 48% 29.78 in 10.0 mi West 18.4 mph 29.9 mph N/A   Overcast
2:53 AM 50.0 °F 33.1 °F 52% 29.79 in 10.0 mi West 15.0 mph 23.0 mph N/A   Scattered Clouds
3:53 AM 48.9 °F 33.1 °F 54% 29.79 in 10.0 mi West 13.8 mph 21.9 mph N/A   Clear
4:53 AM 48.0 °F 33.1 °F 56% 29.80 in 10.0 mi West 16.1 mph 25.3 mph N/A   Clear
5:53 AM 46.9 °F 33.1 °F 59% 29.81 in 10.0 mi West 16.1 mph 26.5 mph N/A   Clear
6:53 AM 46.9 °F 34.0 °F 61% 29.83 in 10.0 mi West 16.1 mph 23.0 mph N/A   Clear
7:53 AM 46.9 °F 34.0 °F 61% 29.84 in 10.0 mi West 16.1 mph 24.2 mph N/A   Clear
8:53 AM 48.9 °F 35.1 °F 59% 29.87 in 10.0 mi West 17.3 mph 26.5 mph N/A   Clear
9:53 AM 52.0 °F 35.1 °F 53% 29.88 in 10.0 mi West 21.9 mph 29.9 mph N/A   Clear
10:53 AM 54.0 °F 34.0 °F 47% 29.88 in 10.0 mi West 18.4 mph 26.5 mph N/A   Clear
11:53 AM 57.0 °F 34.0 °F 42% 29.89 in 10.0 mi West 17.3 mph 27.6 mph N/A   Clear
12:53 PM 57.0 °F 36.0 °F 45% 29.86 in 10.0 mi WSW 13.8 mph 23.0 mph N/A   Partly Cloudy
1:53 PM 55.9 °F 37.0 °F 49% 29.85 in 10.0 mi WSW 9.2 mph 20.7 mph N/A   Overcast
2:53 PM 57.0 °F 37.0 °F 47% 29.83 in 10.0 mi SW 9.2 mph 20.7 mph N/A   Overcast
3:53 PM 59.0 °F 37.0 °F 44% 29.80 in 10.0 mi SSW 12.7 mph - N/A   Mostly Cloudy
4:53 PM 57.9 °F 36.0 °F 44% 29.77 in 10.0 mi SSW 17.3 mph - N/A   Mostly Cloudy
5:53 PM 57.0 °F 37.0 °F 47% 29.76 in 10.0 mi SW 8.1 mph - N/A   Overcast
6:53 PM 55.0 °F 37.9 °F 53% 29.78 in 10.0 mi SW 5.8 mph - N/A   Overcast
7:53 PM 54.0 °F 42.1 °F 64% 29.77 in 10.0 mi SW 8.1 mph - 0.00 in Rain Light Rain
8:53 PM 54.0 °F 42.1 °F 64% 29.74 in 10.0 mi SSW 10.4 mph - 0.00 in   Overcast
9:53 PM 53.1 °F 42.1 °F 66% 29.71 in 10.0 mi SSW 9.2 mph - N/A   Mostly Cloudy
10:53 PM 53.1 °F 43.0 °F 69% 29.68 in 10.0 mi South 12.7 mph - 0.00 in Rain Light Rain
11:53 PM 54.0 °F 44.1 °F 69% 29.65 in 10.0 mi SW 10.4 mph - 0.00 in Rain Light Rain